When you browse on this site, cookies collect data to enhance your experience and personalize the content and advertising you see.
Visit our Privacy Policy to learn more. By continuing to use the site, you agree to this use of cookies and data.
  • In Portugal
  • List of Countries
  • For 7 days
  • Water Temperature
  • Satellite Maps
  • Weather Map
  • Weather Widgets
  • user-avatar
    Login

    Hourly Weather La Paz

    Today, 19 January, Saturday

    Time Temperature Precipitation Wind Pressure Humidity
    00:00 +7°C° 0.4 mm 2 mps 475 mmHg 80%
    01:00 +6°C° 0.4 mm 2 mps 475 mmHg 80%
    02:00 +6°C° 0.6 mm 2 mps 474 mmHg 80%
    03:00 +7°C° 0.6 mm 1 mps 474 mmHg 81%
    04:00 +7°C° 0.6 mm 1 mps 474 mmHg 81%
    05:00 +7°C° 0.6 mm 1 mps 475 mmHg 81%
    06:00 +7°C° 0.6 mm 1 mps 475 mmHg 81%
    07:00 +8°C° 0.6 mm 1 mps 475 mmHg 80%
    08:00 +8°C° 0.5 mm 2 mps 476 mmHg 77%
    09:00 +8°C° 0.5 mm 2 mps 476 mmHg 73%
    10:00 +9°C° 0.5 mm 3 mps 477 mmHg 70%
    11:00 +10°C° 0.5 mm 3 mps 477 mmHg 69%
    12:00 +10°C° 0.5 mm 3 mps 476 mmHg 69%
    13:00 +10°C° 0.5 mm 3 mps 476 mmHg 68%
    14:00 +10°C° 0.4 mm 3 mps 476 mmHg 69%
    15:00 +10°C° 0.4 mm 3 mps 475 mmHg 69%
    16:00 +10°C° 0.4 mm 3 mps 475 mmHg 70%
    17:00 +10°C° 0.2 mm 3 mps 475 mmHg 75%
    18:00 +9°C° 0.2 mm 3 mps 474 mmHg 79%
    19:00 +7°C° 0.2 mm 4 mps 474 mmHg 84%
    20:00 +8°C° 0.1 mm 3 mps 475 mmHg 86%
    21:00 +7°C° 0.1 mm 3 mps 475 mmHg 88%
    22:00 +7°C° 0.1 mm 3 mps 475 mmHg 90%
    23:00 +7°C° 0 mm 2 mps 475 mmHg 90%

    Tomorrow, 20 January, Sunday

    Time Temperature Precipitation Wind Pressure Humidity
    00:00 +6°C° 0 mm 2 mps 474 mmHg 90%
    01:00 +7°C° 0 mm 1 mps 474 mmHg 89%
    02:00 +6°C° 0 mm 1 mps 474 mmHg 89%
    03:00 +6°C° 0 mm 1 mps 473 mmHg 88%
    04:00 +6°C° 0 mm 1 mps 473 mmHg 87%
    05:00 +6°C° 0 mm 1 mps 474 mmHg 84%
    06:00 +7°C° 0 mm 1 mps 475 mmHg 81%
    07:00 +8°C° 0 mm 1 mps 476 mmHg 78%
    08:00 +9°C° 0 mm 1 mps 476 mmHg 73%
    09:00 +10°C° 0 mm 2 mps 477 mmHg 68%
    10:00 +12°C° 0 mm 2 mps 478 mmHg 63%
    11:00 +12°C° 0.1 mm 2 mps 477 mmHg 62%
    12:00 +13°C° 0.1 mm 2 mps 477 mmHg 62%
    13:00 +13°C° 0.1 mm 2 mps 477 mmHg 61%
    14:00 +12°C° 0.2 mm 3 mps 476 mmHg 62%
    15:00 +12°C° 0.2 mm 3 mps 476 mmHg 64%
    16:00 +12°C° 0.2 mm 3 mps 475 mmHg 65%
    17:00 +11°C° 0.3 mm 4 mps 475 mmHg 71%
    18:00 +10°C° 0.3 mm 4 mps 475 mmHg 77%
    19:00 +8°C° 0.3 mm 4 mps 475 mmHg 83%
    20:00 +8°C° 0 mm 3 mps 475 mmHg 86%
    21:00 +8°C° 0 mm 3 mps 475 mmHg 88%
    22:00 +7°C° 0 mm 3 mps 475 mmHg 90%
    23:00 +7°C° 0 mm 2 mps 475 mmHg 89%

    Day after tomorrow, 21 January, Monday

    Time Temperature Precipitation Wind Pressure Humidity
    00:00 +7°C° 0 mm 2 mps 475 mmHg 88%
    01:00 +8°C° 0 mm 1 mps 474 mmHg 87%
    02:00 +8°C° 0 mm 1 mps 474 mmHg 87%
    03:00 +8°C° 0 mm 1 mps 474 mmHg 87%
    04:00 +7°C° 0 mm 1 mps 474 mmHg 87%
    05:00 +8°C° 0 mm 1 mps 474 mmHg 84%
    06:00 +9°C° 0 mm 1 mps 475 mmHg 81%
    07:00 +9°C° 0 mm 1 mps 475 mmHg 77%
    08:00 +10°C° 0 mm 1 mps 476 mmHg 71%
    09:00 +12°C° 0 mm 2 mps 477 mmHg 65%
    10:00 +13°C° 0 mm 2 mps 477 mmHg 59%
    11:00 +12°C° 0.1 mm 3 mps 477 mmHg 58%
    12:00 +13°C° 0.1 mm 3 mps 477 mmHg 57%
    13:00 +13°C° 0.1 mm 4 mps 477 mmHg 56%
    14:00 +13°C° 0.1 mm 4 mps 476 mmHg 59%
    15:00 +13°C° 0.1 mm 4 mps 475 mmHg 62%
    16:00 +12°C° 0.1 mm 4 mps 475 mmHg 65%
    17:00 +11°C° 0.1 mm 4 mps 475 mmHg 70%
    18:00 +10°C° 0.1 mm 4 mps 475 mmHg 75%
    19:00 +8°C° 0.1 mm 4 mps 474 mmHg 80%
    20:00 +8°C° 0 mm 3 mps 475 mmHg 82%
    21:00 +8°C° 0 mm 3 mps 475 mmHg 83%
    22:00 +7°C° 0 mm 3 mps 475 mmHg 84%
    23:00 +7°C° 0.1 mm 2 mps 475 mmHg 83%

    22 January, Tuesday

    Time Temperature Precipitation Wind Pressure Humidity
    00:00 +7°C° 0.1 mm 2 mps 475 mmHg 82%
    01:00 +8°C° 0.1 mm 1 mps 475 mmHg 81%
    02:00 +8°C° 0.4 mm 1 mps 474 mmHg 82%
    03:00 +8°C° 0.4 mm 1 mps 474 mmHg 83%
    04:00 +7°C° 0.4 mm 1 mps 474 mmHg 84%
    05:00 +8°C° 0.7 mm 1 mps 475 mmHg 84%
    06:00 +8°C° 0.7 mm 1 mps 475 mmHg 84%
    07:00 +8°C° 0.7 mm 1 mps 475 mmHg 84%
    08:00 +9°C° 0.4 mm 1 mps 476 mmHg 78%
    09:00 +9°C° 0.4 mm 2 mps 476 mmHg 72%
    10:00 +10°C° 0.4 mm 2 mps 477 mmHg 66%
    11:00 +11°C° 0.1 mm 3 mps 477 mmHg 63%
    12:00 +12°C° 0.1 mm 3 mps 477 mmHg 60%
    13:00 +13°C° 0.1 mm 4 mps 477 mmHg 57%
    14:00 +13°C° 0.1 mm 4 mps 476 mmHg 59%
    15:00 +13°C° 0.1 mm 4 mps 476 mmHg 61%
    16:00 +12°C° 0.1 mm 4 mps 475 mmHg 63%
    17:00 +11°C° 0 mm 4 mps 475 mmHg 69%
    18:00 +10°C° 0 mm 3 mps 475 mmHg 75%
    19:00 +9°C° 0 mm 3 mps 475 mmHg 81%
    20:00 +9°C° 0 mm 3 mps 475 mmHg 83%
    21:00 +8°C° 0 mm 3 mps 475 mmHg 84%
    22:00 +8°C° 0 mm 2 mps 475 mmHg 85%
    23:00 +7°C° 0.1 mm 2 mps 475 mmHg 85%

    23 January, Wednesday

    Time Temperature Precipitation Wind Pressure Humidity
    00:00 +7°C° 0.1 mm 2 mps 475 mmHg 84%
    01:00 +7°C° 0.1 mm 2 mps 474 mmHg 84%
    02:00 +8°C° 0.2 mm 1 mps 474 mmHg 85%
    03:00 +7°C° 0.2 mm 1 mps 474 mmHg 85%
    04:00 +7°C° 0.2 mm 1 mps 473 mmHg 86%
    05:00 +8°C° 0.2 mm 1 mps 474 mmHg 83%
    06:00 +8°C° 0.2 mm 1 mps 475 mmHg 81%
    07:00 +9°C° 0.2 mm 1 mps 476 mmHg 79%
    08:00 +10°C° 0.1 mm 1 mps 476 mmHg 73%
    09:00 +10°C° 0.1 mm 2 mps 477 mmHg 68%
    10:00 +11°C° 0.1 mm 3 mps 478 mmHg 62%
    11:00 +12°C° 0.1 mm 3 mps 477 mmHg 60%
    12:00 +13°C° 0.1 mm 4 mps 477 mmHg 57%
    13:00 +13°C° 0.1 mm 4 mps 477 mmHg 55%
    14:00 +13°C° 0.1 mm 4 mps 476 mmHg 58%
    15:00 +12°C° 0.1 mm 4 mps 476 mmHg 62%
    16:00 +12°C° 0.1 mm 4 mps 475 mmHg 65%
    17:00 +11°C° 0 mm 4 mps 475 mmHg 70%
    18:00 +10°C° 0 mm 4 mps 475 mmHg 76%
    19:00 +9°C° 0 mm 3 mps 475 mmHg 81%
    20:00 +8°C° 0 mm 3 mps 475 mmHg 82%
    21:00 +8°C° 0 mm 3 mps 475 mmHg 83%
    22:00 +7°C° 0 mm 3 mps 475 mmHg 84%
    23:00 +7°C° 0.2 mm 2 mps 475 mmHg 83%

    24 January, Thursday

    Time Temperature Precipitation Wind Pressure Humidity
    00:00 +7°C° 0.2 mm 2 mps 474 mmHg 83%
    01:00 +6°C° 0.2 mm 2 mps 474 mmHg 83%
    02:00 +6°C° 0.4 mm 2 mps 474 mmHg 84%
    03:00 +7°C° 0.4 mm 1 mps 473 mmHg 85%
    04:00 +7°C° 0.4 mm 1 mps 473 mmHg 86%
    05:00 +7°C° 0.6 mm 1 mps 474 mmHg 84%
    06:00 +7°C° 0.6 mm 1 mps 474 mmHg 82%
    07:00 +8°C° 0.6 mm 1 mps 475 mmHg 80%
    08:00 +8°C° 0.2 mm 2 mps 476 mmHg 75%
    09:00 +9°C° 0.2 mm 3 mps 477 mmHg 71%
    10:00 +11°C° 0.2 mm 3 mps 477 mmHg 66%
    11:00 +11°C° 0.1 mm 4 mps 477 mmHg 64%
    12:00 +12°C° 0.1 mm 4 mps 477 mmHg 61%
    13:00 +13°C° 0.1 mm 5 mps 477 mmHg 59%
    14:00 +13°C° 0.2 mm 5 mps 476 mmHg 60%
    15:00 +13°C° 0.2 mm 5 mps 476 mmHg 61%
    16:00 +12°C° 0.2 mm 5 mps 475 mmHg 62%
    17:00 +11°C° 0 mm 4 mps 475 mmHg 67%
    18:00 +8°C° 0 mm 4 mps 474 mmHg 73%
    19:00 +8°C° 0 mm 3 mps 474 mmHg 79%
    20:00 +8°C° 0 mm 3 mps 474 mmHg 80%
    21:00 +7°C° 0 mm 3 mps 474 mmHg 81%
    22:00 +7°C° 0 mm 2 mps 474 mmHg 81%
    23:00 +6°C° 0.1 mm 2 mps 474 mmHg 81%
    Show more